Showing default

GALAXY 14, 28790

Orbit data source: Space-Track

GALAXY 14, 28790 is a payload satellite owned by Panamsat (US) in GEO that was launched on Sat, 13 Aug 2005 UTC via a SOYUZ-FG launch vehicle from the Tyuratam Missile And Space Complex (TTMTR). Payload-class satellites include a variety of spacecraft equipped with specific instruments for various scientific and technological missions. These include communications satellites like Starlink; space stations such as the ISS; scientific satellites like the Hubble; Earth observation satellites from companies like Planet Labs, Umbra, and HawkEye 360; GPS; miniature CubeSats for education and research; and military/defense satellites.

Loading next visibility...
Identifier
28790, 2005-030A
Orbit
GEO
Country
Flag of USUS
Related business
Manufacturer
OSC
Mission
Non-operational Commercial Communications
Bus & Motor
OSC STAR 2, IHI LAE
Mass
2,087 kg wet, ~850 kg dry
Launch date (UTC)
2005-08-13 (21 years ago)
Launch vehicle
SOYUZ-FG
Launch site
Tyuratam Missile And Space Complex (TTMTR)
Object type
Payload
Rocket body
Debris
Shape & HBR
Box + 2 Pan, 6.3 m
Radar Cross Section
13.542 m², Large (>1 m²)

Expand to show TLE details & history
Last TLE update: 11 hours ago

TLE from 11 hours ago
0 GALAXY 14
1 28790U 05030A   26105.48371146  .00000005  00000-0  00000-0 0  9997
2 28790   4.8674  75.8170 0004499 319.7415 191.5566  0.98914349 75609
Epoch: 2026-04-15T11:36Z
TLE epoch observation values (Epoch: 2026-04-15T11:36:32.670Z)
Latitude
2.33744°
Longitude
-150.5966°
Altitude
36,189.546 km
Speed
3.059 km/s
True Right ascension
15h 08m 44s
True Declination
2° 20' 06"
Sunlit
Object was in daylight at epoch
Visualization orbit readout
Latitude
Unknown
Longitude
Unknown
Altitude
Unknown
Speed
Unknown
Apparent Right ascension
Unknown
Apparent Declination
Unknown
Sunlit
N/A
Visualization observer readout
Local Sidereal Time
05:22:44
Azimuth
Unknown
Elevation
Unknown
Doppler factor
Unknown
Orbital elements
Apogee altitude
36,191.672 km
Perigee altitude
36,153.385 km
Semi-major axis
42,550.666 km
Eccentricity
0.00045
Inclination
4.8674°
RAAN
75.817°
Arg. of periapsis
319.7415°
True anomaly
191.54628°
Mean anomaly
191.5566°
Eccentric anomaly
191.55144°
Mean motion
0.24728 °/min
Orbital period
1,455.86 mins
BSTAR
0
Loading maneuver chart data...
Computing Atmospheric mass density...
Loading historical data...
Loading historical data...
Loading historical data...
Loading historical data...
Loading historical data...
Loading historical data...
Loading historical data...
Other satellites on launch #30 in the year 2005 (2005-08-13 UTC)

Documentation

Showing up to 5 results
|